Location: Asheville, NC
(35.6000°N, 82.5500°W)
Time: 18:53:15
(UTC-04:00)

Vanguard 3 - Pass Details

Date: 13 December 2017
Orbit: 508 x 3264 km, 33.3° (Epoch: 23 April)

Event Time Altitude Azimuth Distance (km) Brightness Sun altitude
Rises 13:48:58 0° 255° (WSW) 2,955 10.5 27.9°
Reaches altitude 10° 13:51:30 10° 252° (WSW) 1,865 9.7 27.7°
Maximum altitude 13:55:24 56° 173° (S) 605 7.6 27.4°
Drops below altitude 10° 13:59:01 10° 94° (E) 1,742 8.8 27.1°
Sets 14:01:20 0° 90° (E) 2,733 9.6 26.9°
